Regional Weather Roundup
Issued by NWS

Home | Current Version | Previous Version | Text Only | Print | Product List | Glossary On
Versions: 1 2 3 4 5 6 7 8 9 10 11 12 13 14 15 16 17 18 19 20 21 22 23 24 25 26 27 28 29 30 31 32 33 34 35 36 37 38 39 40 41 42 43 44 45 46 47 48 49 50
000
ASUS43 KLMK 070202
RWRKY
KENTUCKY REGIONAL WEATHER ROUNDUP
NATIONAL WEATHER SERVICE LOUISVILLE KY
900 PM EST TUE DEC 06 2016

NOTE "FAIR" INDICATES FEW OR NO CLOUDS BELOW 12,000 FEET
WITH NO SIGNIFICANT WEATHER AND/OR OBSTRUCTIONS TO VISIBILITY.

KYZ001>023-026-027-061>063-070>075-070300-
WESTERN AND SOUTH CENTRAL KENTUCKY

CITY           SKY/WX    TMP DP  RH WIND       PRES   REMARKS
PADUCAH        CLOUDY    42  35  76 N3        30.06R
HENDERSON      MOCLDY    39  34  81 N7        30.04R WCI  34
OWENSBORO      CLOUDY    40  35  83 N6        30.04R
HOPKINSVILLE   CLOUDY    40  36  83 N5        30.04R
BOWLING GREEN  CLOUDY    42  35  76 NW10      30.03R
GLASGOW        NOT AVBL
$$

KYZ024-025-028>034-038-045-046-053-070300-
NORTH CENTRAL KENTUCKY

CITY           SKY/WX    TMP DP  RH WIND       PRES   REMARKS
LOUISVILLE/SDF CLOUDY    41  33  73 NW17G23   30.01R
LOUISVILLE/LOU CLOUDY    41  34  76 NW12      30.00R
FORT KNOX      CLOUDY    39  33  81 NW12      30.00R WCI  32
$$

KYZ035>037-039>044-047>052-055>060-089>105-070300-
NORTHEAST KENTUCKY

CITY           SKY/WX    TMP DP  RH WIND       PRES   REMARKS
LEXINGTON      CLOUDY    43  37  79 W8        29.96R
COVINGTON      CLOUDY    39  34  82 W17       29.95R WCI  30
FRANKFORT      CLOUDY    43  36  76 W7        29.96R
$$

KYZ054-064>069-076>088-106>120-070300-
SOUTHEAST KENTUCKY

CITY           SKY/WX    TMP DP  RH WIND       PRES   REMARKS
JACKSON        CLOUDY    44  40  85 NW8       29.93R
LONDON         CLOUDY    45  41  86 NW6       29.95R
SOMERSET       CLOUDY    43  41  93 W5        29.98S
MIDDLESBORO    CLOUDY    48  45  90 N9        29.94R
MONTICELLO     CLOUDY    43  39  86 NW5       29.99R
$$





USA.gov is the U.S. government's official web portal to all federal, state and local government web resources and services.